Regional Weather Roundup
Issued by NWS

Home | Current Version | Previous Version | Graphics & Text | Print | Product List | Glossary On
Versions: 1 2 3 4 5 6 7 8 9 10 11 12 13 14 15 16 17 18 19 20 21 22 23 24 25 26 27
000
ASUS45 KCYS 220910
RWRWY

WYOMING REGIONAL WEATHER ROUNDUP
NATIONAL WEATHER SERVICE CHEYENNE WY
200 AM MST MON JAN 22 2018

NOTE:  "FAIR" INDICATES FEW OR NO CLOUDS BELOW 12,000 FEET
WITH NO SIGNIFICANT WEATHER AND/OR OBSTRUCTIONS TO VISIBILITY.

WYZ001-221000-
YELLOWSTONE NATIONAL PARK

CITY           SKY/WX    TMP DP  RH WIND       PRES   REMARKS
LK YELLOWSTONE   N/A      2   0  91 CALM      30.15S
W YELLOWSTONE  NOT AVBL

$$
WYZ002>013-054>058-071-098>099-221000-
NORTHERN WYOMING

CITY           SKY/WX    TMP DP  RH WIND       PRES   REMARKS
JACKSON        FAIR      -3  -7  82 NE5       30.21R WCI -13
CODY           FAIR      26   6  42 NW8G17    30.00S WCI  18
GREYBULL       FAIR       8   5  87 CALM      30.08R
WORLAND        FAIR       1  -1  91 S7        30.06S WCI -12
SHERIDAN       FAIR      12   8  84 CALM      29.98S
BUFFALO        FAIR      21   3  45 W9        29.96F WCI  11
GILLETTE       FAIR      19  11  70 SW13      29.98R WCI   6
HULETT         FAIR      16  12  86 MISG      29.98F
NEWCASTLE      FAIR      14  10  85 NW3       30.00S

$$
WYZ014>020-022>026-101>103-221000-
CENTRAL WYOMING

CITY           SKY/WX    TMP DP  RH WIND       PRES   REMARKS
BIG PINEY      FAIR      -1  -6  79 W3        30.11S
PINEDALE       FAIR       5   1  85 W5        30.11R WCI  -4
DUBOIS         FAIR      19   0  42 NW26G36   30.03S WCI   1
LANDER         FAIR       9   1  70 NW3       30.02S
RIVERTON       FAIR       4   0  83 W6        30.03S WCI  -7
CASPER         FAIR      12   6  77 W12       30.02S WCI  -2
DOUGLAS        FAIR       4   2  91 NW10      30.01S WCI -11

$$
WYZ021-027>030-104>119-221000-
SOUTHERN WYOMING

CITY           SKY/WX    TMP DP  RH WIND       PRES   REMARKS
EVANSTON       FAIR       6   4  91 SW12      30.17S WCI  -9
ROCK SPRINGS   FAIR      11   6  81 W18       30.12R WCI  -7
DIXON          FLURRIES   1  -3  83 E5        30.17S WCI  -9
RAWLINS        FAIR      11   6  81 W10G17    30.05R WCI  -3
SARATOGA       FAIR       3   3 100 SW6       30.08R WCI  -8
LARAMIE        FAIR       4   3  96 E6        29.95R WCI  -7
CHEYENNE       FAIR      18  10  71 NW17G26   29.93R WCI   3
TORRINGTON     FAIR      23  14  68 NW13      29.98R WCI  11

$$




USA.gov is the U.S. government's official web portal to all federal, state and local government web resources and services.